This demonstration page uses our WeatherBlox Daily Observations layout. Learn more.

Left ArrowRight Arrow

39.08367, -84.50855

Hourly Observations for March 24, 2015

Temp ( °F °C ) Dew Point ( °F °C ) Humidity (%) Winds ( mph kmh ) Pressure ( in mb ) Visibility ( mi km ) Precip ( " mm )
12:53 am 00:53 Cloudy 33 0.6 28 -2.2 82 82 NE 12 19 30.2 1023 10 16.0934 N/A
1:53 am 01:53 Cloudy 33 0.6 28 -2.2 82 82 ENE 7 11 30.19 1022 10 16.0934 N/A
2:53 am 02:53 Cloudy 33 0.6 28 -2.2 82 82 NE 7 11 30.19 1023 10 16.0934 N/A
3:53 am 03:53 Mostly Cloudy 32 undefined 28 -2.2 85 85 NNE 8 13 30.2 1023 9 14.48406 N/A
4:53 am 04:53 Cloudy 33 0.6 28 -2.2 82 82 NNE 10 17 30.2 1023 9 14.48406 N/A
5:21 am 05:21 Cloudy 33 0.6 28 -2.2 82 82 NE 9 15 30.21 1023 9 14.48406 N/A
5:53 am 05:53 Cloudy 33 0.6 28 -2.2 82 82 NE 10 17 30.2 1023 9 14.48406 N/A
6:53 am 06:53 Cloudy 33 0.6 28 -2.2 82 82 NNE 9 15 30.23 1024 8 12.87472 N/A
7:53 am 07:53 Hazy 31 -0.6 26 -3.3 82 82 NE 12 19 30.24 1024 6 9.65604 N/A
8:53 am 08:53 Mostly Cloudy 32 undefined 27 -2.8 82 82 NNE 10 17 30.25 1024 7 11.26538 N/A
9:53 am 09:53 Partly Cloudy 34 1.1 27 -2.8 76 76 NE 10 17 30.27 1025 8 12.87472 N/A
10:53 am 10:53 Mostly Cloudy 36 2.2 28 -2.2 73 73 ENE 10 17 30.27 1025 9 14.48406 N/A
11:53 am 11:53 Mostly Sunny 40 4.4 29 -1.7 65 65 NE 7 11 30.28 1025 10 16.0934 N/A
12:53 pm 12:53 Mostly Sunny 42 5.6 30 -1.1 62 62 NE 9 15 30.25 1024 10 16.0934 N/A
1:53 pm 13:53 Mostly Cloudy 44 6.7 31 -0.6 60 60 NNE 9 15 30.24 1024 10 16.0934 N/A
2:53 pm 14:53 Cloudy with Light Rain 43 6.1 34 1.1 71 71 NE 8 13 30.24 1024 7 11.26538 0.01 0.254
3:53 pm 15:53 Cloudy with Light Rain 42 5.6 36 2.2 79 79 NNE 6 9 30.25 1024 6 9.65604 0.06 1.524
4:53 pm 16:53 Cloudy with Light Rain 42 5.6 39 3.9 89 89 N N/A 30.22 1024 5 8.0467 0.03 0.762
5:53 pm 17:53 Cloudy with Mist and Fog 42 5.6 40 4.4 92 92 N N/A 30.2 1023 6 9.65604 0.03 0.762
6:53 pm 18:53 Cloudy 43 6.1 40 4.4 89 89 N N/A 30.19 1022 8 12.87472 N/A
7:53 pm 19:53 Cloudy 43 6.1 41 5 93 93 N N/A 30.18 1022 7 11.26538 N/A
8:53 pm 20:53 Cloudy 43 6.1 40 4.4 89 89 VRB 5 7 30.15 1021 9 14.48406 N/A
9:53 pm 21:53 Cloudy with Mist and Fog 42 5.6 42 5.6 100 100 N N/A 30.15 1021 5 8.0467 N/A
10:53 pm 22:53 Cloudy 43 6.1 41 5 93 93 VRB 3 6 30.11 1020 9 14.48406 N/A
11:53 pm 23:53 Cloudy 43 6.1 40 4.4 89 89 VRB 3 6 30.11 1020 10 16.0934 N/A

Powered by AerisWeather